This is the latest recevied weather packets stored in our database for station/object N9CQL. If no packets are shown the sender has not sent any weather packets the latest 1 day(s).
| Time | Temp. | Humidity | Pressure | Rain* | Wind** | Luminosity | Snow |
|---|---|---|---|---|---|---|---|
| 1778061399 | 5° C | 71% | 1010.4 hPa | 0 mm | - | 0 W/m² | - |
| 1778061095 | 5° C | 71% | 1010.8 hPa | 0 mm | - | 0 W/m² | - |
| 1778059885 | 5.56° C | 69% | 1010.6 hPa | 0 mm | - | 0 W/m² | - |
| 1778059280 | 5.56° C | 69% | 1010.4 hPa | 0 mm | - | 0 W/m² | - |
| 1778058978 | 5.56° C | 70% | 1010.3 hPa | 0 mm | - | 0 W/m² | - |
| 1778058069 | 5.56° C | 70% | 1010.7 hPa | 0 mm | - | 0 W/m² | - |
| 1778057463 | 5.56° C | 70% | 1010.6 hPa | 0 mm | - | 0 W/m² | - |
| 1778056856 | 5.56° C | 67% | 1010.3 hPa | 0 mm | - | 0 W/m² | - |
| 1778056553 | 5.56° C | 67% | 1010.3 hPa | 0 mm | - | 0 W/m² | - |
| 1778055947 | 6.11° C | 63% | 1010.2 hPa | 0 mm | - | 0 W/m² | - |
| 1778055341 | 6.67° C | 63% | 1010.3 hPa | 0 mm | - | 0 W/m² | - |
| 1778055038 | 6.67° C | 60% | 1010.4 hPa | 0 mm | - | 0 W/m² | - |
| 1778054130 | 7.22° C | 59% | 1010.2 hPa | 0 mm | - | 0 W/m² | - |
| 1778053827 | 7.78° C | 58% | 1009.9 hPa | 0 mm | - | 0 W/m² | - |
| 1778052919 | 7.78° C | 56% | 1009.9 hPa | 0 mm | - | 0 W/m² | - |
| 1778052616 | 8.33° C | 56% | 1009.9 hPa | 0 mm | - | 0 W/m² | - |
| 1778052313 | 8.33° C | 57% | 1009.9 hPa | 0 mm | - | 0 W/m² | - |
| 1778052011 | 8.33° C | 56% | 1009.7 hPa | 0 mm | - | 0 W/m² | - |
| 1778050194 | 8.89° C | 54% | 1009.7 hPa | 0 mm | - | 0 W/m² | - |
| 1778049284 | 8.89° C | 53% | 1009.7 hPa | 0 mm | - | 0 W/m² | - |
| 1778048982 | 9.44° C | 52% | 1009.6 hPa | 0 mm | - | 0 W/m² | - |
| 1778048680 | 9.44° C | 52% | 1009.6 hPa | 0 mm | - | 0 W/m² | - |
| 1778048376 | 9.44° C | 51% | 1009.7 hPa | 0 mm | - | 0 W/m² | - |
| 1778047771 | 10° C | 50% | 1009.5 hPa | 0 mm | - | 0 W/m² | - |
| 1778047469 | 10° C | 50% | 1009.8 hPa | 0 mm | - | 0 W/m² | - |
* Rain latest hour (hover to see other rain measurements)
** Current wind speed in m/s (hover to see current wind gust speed)